When you browse on this site, cookies collect data to enhance your experience and personalize the content and advertising you see.
Visit our Privacy Policy to learn more. By continuing to use the site, you agree to this use of cookies and data.
  • In Schweiz
  • Länderverzeichnis
  • Für 7 Tage
  • Wassertemperatur
  • Wetterkarte
  • Widgets
  • user-avatar
    Anmelden

    Stündliche Wetter Banjul

    Heute, 24 August, Samstag

    Zeit Temperatur Niederschläge Wind Luftdruck Luftfeuchtigkeit
    00:00 +28°C° 0.3 mm 7 m/S 760 mmHg 86%
    01:00 +27°C° 0.3 mm 6 m/S 759 mmHg 86%
    02:00 +27°C° 0.3 mm 6 m/S 759 mmHg 86%
    03:00 +27°C° 0.2 mm 6 m/S 759 mmHg 87%
    04:00 +27°C° 0.2 mm 6 m/S 759 mmHg 87%
    05:00 +27°C° 0.2 mm 5 m/S 759 mmHg 87%
    06:00 +28°C° 0.3 mm 5 m/S 759 mmHg 85%
    07:00 +28°C° 0.3 mm 5 m/S 759 mmHg 82%
    08:00 +29°C° 0.3 mm 5 m/S 760 mmHg 80%
    09:00 +29°C° 1 mm 6 m/S 760 mmHg 78%
    10:00 +30°C° 1 mm 6 m/S 760 mmHg 76%
    11:00 +32°C° 1 mm 6 m/S 760 mmHg 75%
    12:00 +32°C° 0.3 mm 7 m/S 759 mmHg 74%
    13:00 +32°C° 0.3 mm 7 m/S 759 mmHg 73%
    14:00 +32°C° 0.3 mm 8 m/S 758 mmHg 72%
    15:00 +31°C° 0 mm 8 m/S 758 mmHg 74%
    16:00 +30°C° 0 mm 7 m/S 758 mmHg 76%
    17:00 +29°C° 0 mm 7 m/S 757 mmHg 77%
    18:00 +29°C° 0 mm 6 m/S 758 mmHg 79%
    19:00 +29°C° 0 mm 6 m/S 759 mmHg 81%
    20:00 +28°C° 0 mm 5 m/S 759 mmHg 82%
    21:00 +28°C° 0 mm 5 m/S 759 mmHg 83%
    22:00 +28°C° 0 mm 5 m/S 759 mmHg 83%
    23:00 +28°C° 0 mm 5 m/S 759 mmHg 83%

    Morgen, 25 August, Sonntag

    Zeit Temperatur Niederschläge Wind Luftdruck Luftfeuchtigkeit
    00:00 +28°C° 0 mm 5 m/S 759 mmHg 84%
    01:00 +28°C° 0 mm 5 m/S 758 mmHg 84%
    02:00 +28°C° 0 mm 6 m/S 758 mmHg 85%
    03:00 +28°C° 0.2 mm 6 m/S 758 mmHg 85%
    04:00 +28°C° 0.2 mm 6 m/S 758 mmHg 85%
    05:00 +28°C° 0.2 mm 6 m/S 757 mmHg 85%
    06:00 +28°C° 0.4 mm 6 m/S 758 mmHg 85%
    07:00 +28°C° 0.4 mm 6 m/S 758 mmHg 84%
    08:00 +29°C° 0.4 mm 6 m/S 759 mmHg 83%
    09:00 +29°C° 0.6 mm 6 m/S 759 mmHg 80%
    10:00 +30°C° 0.6 mm 6 m/S 759 mmHg 77%
    11:00 +30°C° 0.6 mm 6 m/S 759 mmHg 75%
    12:00 +30°C° 0.4 mm 6 m/S 758 mmHg 74%
    13:00 +30°C° 0.4 mm 6 m/S 758 mmHg 72%
    14:00 +30°C° 0.4 mm 7 m/S 758 mmHg 71%
    15:00 +30°C° 0 mm 6 m/S 758 mmHg 72%
    16:00 +29°C° 0 mm 6 m/S 758 mmHg 73%
    17:00 +29°C° 0 mm 6 m/S 757 mmHg 74%
    18:00 +29°C° 0 mm 5 m/S 758 mmHg 75%
    19:00 +28°C° 0 mm 5 m/S 758 mmHg 76%
    20:00 +28°C° 0 mm 4 m/S 759 mmHg 77%
    21:00 +28°C° 0 mm 4 m/S 759 mmHg 78%
    22:00 +28°C° 0 mm 5 m/S 759 mmHg 79%
    23:00 +28°C° 0 mm 5 m/S 759 mmHg 79%

    übermorgen, 26 August, Montag

    Zeit Temperatur Niederschläge Wind Luftdruck Luftfeuchtigkeit
    00:00 +28°C° 0 mm 6 m/S 759 mmHg 79%
    01:00 +28°C° 0 mm 6 m/S 758 mmHg 79%
    02:00 +28°C° 0 mm 7 m/S 757 mmHg 80%
    03:00 +28°C° 0 mm 7 m/S 757 mmHg 80%
    04:00 +28°C° 0 mm 7 m/S 758 mmHg 80%
    05:00 +28°C° 0 mm 6 m/S 758 mmHg 81%
    06:00 +28°C° 0 mm 6 m/S 758 mmHg 81%
    07:00 +28°C° 0 mm 5 m/S 758 mmHg 81%
    08:00 +28°C° 0 mm 4 m/S 759 mmHg 81%
    09:00 +28°C° 0 mm 4 m/S 759 mmHg 78%
    10:00 +29°C° 0 mm 4 m/S 759 mmHg 75%
    11:00 +30°C° 0 mm 4 m/S 759 mmHg 72%
    12:00 +29°C° 0 mm 4 m/S 758 mmHg 73%
    13:00 +29°C° 0 mm 4 m/S 758 mmHg 74%
    14:00 +29°C° 0 mm 4 m/S 757 mmHg 74%
    15:00 +29°C° 0 mm 4 m/S 757 mmHg 76%
    16:00 +28°C° 0 mm 4 m/S 757 mmHg 78%
    17:00 +28°C° 0 mm 4 m/S 757 mmHg 80%
    18:00 +28°C° 0 mm 4 m/S 757 mmHg 81%
    19:00 +28°C° 0 mm 3 m/S 758 mmHg 81%
    20:00 +28°C° 0 mm 3 m/S 759 mmHg 81%
    21:00 +28°C° 0 mm 3 m/S 759 mmHg 81%
    22:00 +27°C° 0 mm 3 m/S 759 mmHg 82%
    23:00 +27°C° 0 mm 3 m/S 759 mmHg 83%

    27 August, Dienstag

    Zeit Temperatur Niederschläge Wind Luftdruck Luftfeuchtigkeit
    00:00 +27°C° 0.1 mm 3 m/S 759 mmHg 83%
    01:00 +27°C° 0.1 mm 3 m/S 758 mmHg 83%
    02:00 +27°C° 0.1 mm 3 m/S 758 mmHg 83%
    03:00 +27°C° 0.1 mm 3 m/S 758 mmHg 83%
    04:00 +27°C° 0.1 mm 2 m/S 758 mmHg 83%
    05:00 +27°C° 0.1 mm 2 m/S 758 mmHg 82%
    06:00 +28°C° 0 mm 2 m/S 758 mmHg 80%
    07:00 +28°C° 0 mm 2 m/S 759 mmHg 77%
    08:00 +29°C° 0 mm 1 m/S 759 mmHg 74%
    09:00 +30°C° 0 mm 2 m/S 759 mmHg 71%
    10:00 +30°C° 0 mm 2 m/S 759 mmHg 67%
    11:00 +31°C° 0 mm 3 m/S 759 mmHg 63%
    12:00 +31°C° 0.1 mm 3 m/S 758 mmHg 63%
    13:00 +33°C° 0.1 mm 4 m/S 758 mmHg 62%
    14:00 +33°C° 0.1 mm 4 m/S 757 mmHg 62%
    15:00 +32°C° 0.1 mm 5 m/S 757 mmHg 65%
    16:00 +32°C° 0.1 mm 5 m/S 757 mmHg 68%
    17:00 +30°C° 0.1 mm 6 m/S 757 mmHg 71%
    18:00 +29°C° 0.3 mm 6 m/S 758 mmHg 74%
    19:00 +29°C° 0.3 mm 5 m/S 758 mmHg 76%
    20:00 +28°C° 0.3 mm 5 m/S 759 mmHg 79%
    21:00 +28°C° 0.6 mm 5 m/S 759 mmHg 80%
    22:00 +28°C° 0.6 mm 5 m/S 759 mmHg 81%
    23:00 +28°C° 0.6 mm 5 m/S 760 mmHg 82%

    28 August, Mittwoch

    Zeit Temperatur Niederschläge Wind Luftdruck Luftfeuchtigkeit
    00:00 +27°C° 0.6 mm 5 m/S 759 mmHg 83%
    01:00 +27°C° 0.6 mm 5 m/S 759 mmHg 84%
    02:00 +27°C° 0.6 mm 5 m/S 758 mmHg 85%
    03:00 +27°C° 0.4 mm 4 m/S 758 mmHg 85%
    04:00 +27°C° 0.4 mm 4 m/S 758 mmHg 85%
    05:00 +27°C° 0.4 mm 4 m/S 758 mmHg 86%
    06:00 +27°C° 0.2 mm 3 m/S 759 mmHg 83%
    07:00 +28°C° 0.2 mm 3 m/S 759 mmHg 80%
    08:00 +28°C° 0.2 mm 3 m/S 759 mmHg 78%
    09:00 +29°C° 0 mm 3 m/S 759 mmHg 72%
    10:00 +30°C° 0 mm 3 m/S 759 mmHg 66%
    11:00 +31°C° 0 mm 3 m/S 759 mmHg 61%
    12:00 +33°C° 0 mm 3 m/S 759 mmHg 59%
    13:00 +33°C° 0 mm 4 m/S 758 mmHg 57%
    14:00 +33°C° 0 mm 4 m/S 757 mmHg 56%
    15:00 +33°C° 0 mm 4 m/S 757 mmHg 60%
    16:00 +32°C° 0 mm 4 m/S 757 mmHg 64%
    17:00 +30°C° 0 mm 5 m/S 757 mmHg 68%
    18:00 +29°C° 0 mm 4 m/S 758 mmHg 72%
    19:00 +29°C° 0 mm 4 m/S 758 mmHg 75%
    20:00 +28°C° 0 mm 3 m/S 759 mmHg 79%
    21:00 +28°C° 0 mm 3 m/S 759 mmHg 80%
    22:00 +28°C° 0 mm 3 m/S 759 mmHg 80%
    23:00 +28°C° 0 mm 3 m/S 759 mmHg 81%

    29 August, Donnerstag

    Zeit Temperatur Niederschläge Wind Luftdruck Luftfeuchtigkeit
    00:00 +28°C° 0 mm 3 m/S 759 mmHg 81%
    01:00 +27°C° 0 mm 3 m/S 759 mmHg 82%
    02:00 +27°C° 0 mm 3 m/S 758 mmHg 82%
    03:00 +27°C° 0 mm 2 m/S 758 mmHg 83%
    04:00 +27°C° 0 mm 2 m/S 758 mmHg 83%
    05:00 +27°C° 0 mm 2 m/S 758 mmHg 83%
    06:00 +27°C° 0 mm 2 m/S 759 mmHg 81%
    07:00 +28°C° 0 mm 2 m/S 759 mmHg 78%
    08:00 +29°C° 0 mm 1 m/S 759 mmHg 76%
    09:00 +30°C° 0 mm 1 m/S 759 mmHg 70%
    10:00 +31°C° 0 mm 2 m/S 759 mmHg 65%
    11:00 +32°C° 0 mm 2 m/S 759 mmHg 59%
    12:00 +33°C° 0 mm 3 m/S 759 mmHg 59%
    13:00 +33°C° 0 mm 3 m/S 758 mmHg 59%
    14:00 +33°C° 0 mm 4 m/S 757 mmHg 58%
    15:00 +33°C° 0 mm 4 m/S 757 mmHg 62%
    16:00 +32°C° 0 mm 5 m/S 757 mmHg 66%
    17:00 +30°C° 0 mm 5 m/S 757 mmHg 70%
    18:00 +30°C° 0 mm 5 m/S 758 mmHg 74%
    19:00 +29°C° 0 mm 5 m/S 758 mmHg 77%
    20:00 +28°C° 0 mm 5 m/S 758 mmHg 81%
    21:00 +28°C° 0 mm 5 m/S 759 mmHg 81%
    22:00 +28°C° 0 mm 5 m/S 759 mmHg 82%
    23:00 +28°C° 0 mm 5 m/S 759 mmHg 83%
    Mehr zeigen